FW6381 Weather Reports


time (UTC)temp
F
wind
direction
speed
knots
gust
knots
rain 1hr
in
rain 24hr
in
rain mn
in
humidity
%
barometer
mb
20260509201005 64 237 6.1 16.5 0.00 0.00 0.00 66 1004.3
20260509200503 65 228 7.0 16.5 0.00 0.00 0.00 65 1004.3
20260509200003 64 218 8.7 16.5 0.00 0.00 0.00 67 1004.2
20260509195503 64 224 8.7 15.6 0.00 0.00 0.00 68 1004.3
20260509195003 64 222 7.8 15.6 0.00 0.00 0.00 67 1004.2
20260509194504 64 212 7.0 14.8 0.00 0.00 0.00 66 1004.2
20260509194215 65 205 7.0 14.8 0.00 0.00 0.00 66 1004.2
20260509193503 65 229 7.0 15.6 0.00 0.00 0.00 66 1004.4
20260509193003 65 243 8.7 15.6 0.00 0.00 0.00 67 1004.7
20260509192503 64 228 8.7 20.9 0.00 0.00 0.00 66 1004.6
20260509192003 64 221 8.7 20.9 0.00 0.00 0.00 68 1004.8
20260509191503 64 227 8.7 20.9 0.00 0.00 0.00 67 1004.9
20260509191003 64 234 9.6 16.5 0.00 0.00 0.00 67 1004.9
20260509190503 64 237 9.6 20.0 0.00 0.00 0.00 66 1005.1
20260509190213 64 228 9.6 22.6 0.00 0.00 0.00 67 1005.1
20260509185503 64 221 8.7 20.9 0.00 0.00 0.00 67 1005.2
20260509185003 64 226 8.7 16.5 0.00 0.00 0.00 69 1005.3
20260509184503 63 228 8.7 22.6 0.00 0.00 0.00 69 1005.3
20260509184003 63 218 7.8 20.9 0.00 0.00 0.00 69 1005.3
20260509183503 63 213 7.0 16.5 0.00 0.00 0.00 71 1005.1
20260509183213 63 227 7.8 16.5 0.00 0.00 0.00 70 1005.2
20260509182503 63 229 8.7 15.6 0.00 0.00 0.00 70 1005.3
20260509182005 63 230 7.8 20.9 0.00 0.00 0.00 70 1005.3
20260509181503 63 232 7.0 20.9 0.00 0.00 0.00 69 1005.3
20260509181006 63 208 7.0 16.5 0.00 0.00 0.00 70 1005.2
20260509180503 63 206 7.8 16.5 0.00 0.00 0.00 71 1005.3
20260509180212 63 219 7.8 16.5 0.00 0.00 0.00 71 1005.4
20260509175505 62 238 8.7 14.8 0.00 0.00 0.00 70 1005.5
20260509175003 62 240 7.8 14.8 0.00 0.00 0.00 71 1005.5
20260509174503 62 244 8.7 16.5 0.00 0.00 0.00 68 1005.7
20260509174003 63 252 9.6 17.4 0.00 0.00 0.00 69 1005.9
20260509173503 63 255 8.7 17.4 0.00 0.00 0.00 69 1006.0
20260509173005 63 259 8.7 19.1 0.00 0.00 0.00 69 1005.9
20260509172503 63 256 8.7 19.1 0.00 0.00 0.00 68 1005.9
20260509172005 63 247 7.0 16.5 0.00 0.00 0.00 67 1005.9
20260509171503 63 235 7.8 16.5 0.00 0.00 0.00 68 1006.0
20260509171214 63 223 7.8 16.5 0.00 0.00 0.00 68 1006.0
20260509170504 63 227 7.0 15.6 0.00 0.00 0.00 68 1006.0
20260509170003 62 235 7.8 16.5 0.00 0.00 0.00 69 1006.0
20260509165504 62 237 7.8 19.1 0.00 0.00 0.00 69 1006.1
20260509165214 62 234 7.8 19.1 0.00 0.00 0.00 67 1006.1
20260509164503 63 237 7.0 16.5 0.00 0.00 0.00 69 1006.1
20260509164003 63 241 8.7 16.5 0.00 0.00 0.00 71 1006.2
20260509163503 62 237 8.7 19.1 0.00 0.00 0.00 69 1006.1
20260509163003 62 251 7.8 19.1 0.00 0.00 0.00 69 1006.2
20260509162505 62 263 8.7 15.6 0.00 0.00 0.00 71 1006.2
20260509162003 62 262 8.7 15.6 0.00 0.00 0.00 70 1006.2
20260509161503 61 256 7.8 14.8 0.00 0.00 0.00 71 1006.3
20260509161005 61 239 7.0 14.8 0.00 0.00 0.00 70 1006.3
20260509160503 61 224 7.0 14.8 0.00 0.00 0.00 71 1006.4
20260509160005 60 235 7.8 14.8 0.00 0.00 0.00 72 1006.4
20260509155503 60 242 7.0 17.4 0.00 0.00 0.00 72 1006.4
20260509155003 60 236 6.1 17.4 0.00 0.00 0.00 72 1006.4
20260509154713 60 239 6.1 16.5 0.00 0.00 0.00 72 1006.5
20260509154003 60 221 6.1 15.6 0.00 0.00 0.00 72 1006.5
20260509153504 60 191 6.1 14.8 0.00 0.00 0.00 72 1006.5
20260509153003 59 201 5.2 14.8 0.00 0.00 0.00 72 1006.6
20260509152503 59 226 5.2 11.3 0.00 0.00 0.00 76 1006.6
20260509152003 58 221 5.2 15.6 0.00 0.00 0.00 76 1006.7
20260509151503 58 232 6.1 15.6 0.00 0.00 0.00 76 1006.7
20260509151003 58 243 6.1 11.3 0.00 0.00 0.00 78 1006.8
20260509150712 58 245 6.1 12.2 0.00 0.00 0.00 78 1006.9
20260509150003 58 233 6.1 12.2 0.00 0.00 0.00 78 1006.7
20260509145505 58 230 6.1 12.2 0.00 0.00 0.00 78 1006.7
20260509145005 57 235 5.2 11.3 0.00 0.00 0.00 78 1006.6
20260509144503 57 233 4.3 11.3 0.00 0.00 0.00 78 1006.7
20260509144003 57 218 5.2 12.2 0.00 0.00 0.00 78 1006.7
20260509143505 57 203 5.2 12.2 0.00 0.00 0.00 78 1006.7
20260509143005 57 202 4.3 12.2 0.00 0.00 0.00 79 1006.8
20260509142503 57 220 5.2 12.2 0.00 0.00 0.00 80 1006.8
20260509142005 56 223 5.2 11.3 0.00 0.00 0.00 81 1006.9
20260509141503 56 223 3.5 10.4 0.00 0.00 0.00 82 1006.9
20260509141005 56 230 4.3 13.0 0.00 0.00 0.00 82 1007.0
20260509140504 56 234 6.1 13.0 0.00 0.00 0.00 82 1007.0
20260509140003 56 228 6.1 13.0 0.00 0.00 0.00 82 1007.0
20260509135503 56 229 7.0 13.0 0.00 0.00 0.00 82 1007.0
20260509135003 56 223 5.2 13.0 0.00 0.00 0.00 82 1007.0
20260509134714 56 207 5.2 13.0 0.00 0.00 0.00 83 1007.1
20260509134003 56 198 5.2 12.2 0.00 0.00 0.00 83 1007.0
20260509133503 56 201 7.0 13.0 0.00 0.00 0.00 83 1007.2
20260509133004 56 205 6.1 16.5 0.00 0.00 0.00 84 1007.0
20260509132505 56 212 6.1 15.6 0.00 0.00 0.00 84 1007.1
20260509132003 56 206 6.1 14.8 0.00 0.00 0.00 84 1007.2
20260509131505 55 200 5.2 11.3 0.00 0.00 0.00 84 1007.1
20260509131003 55 185 5.2 10.4 0.00 0.00 0.00 86 1007.2
20260509130503 54 186 5.2 10.4 0.00 0.00 0.00 86 1007.3
20260509130004 54 184 4.3 10.4 0.00 0.00 0.00 87 1007.3
20260509125505 53 180 5.2 10.4 0.00 0.00 0.00 87 1007.4
20260509125003 53 183 4.3 10.4 0.00 0.00 0.00 87 1007.4
20260509124505 53 169 4.3 8.7 0.00 0.00 0.00 88 1007.4
20260509124003 52 162 4.3 10.4 0.00 0.01 0.00 88 1007.5
20260509123503 52 167 4.3 10.4 0.00 0.01 0.00 88 1007.5
20260509123215 52 166 4.3 11.3 0.00 0.01 0.00 88 1007.6
20260509122503 51 171 4.3 11.3 0.00 0.01 0.00 88 1007.7
20260509122003 51 167 4.3 10.4 0.00 0.01 0.00 88 1007.7
20260509121504 51 169 4.3 10.4 0.00 0.01 0.00 89 1007.8
20260509121004 50 169 4.3 11.3 0.00 0.01 0.00 89 1007.7
20260509120503 50 165 5.2 11.3 0.00 0.01 0.00 89 1007.8
20260509120005 50 174 4.3 8.7 0.00 0.01 0.00 89 1007.9
20260509115504 50 176 4.3 10.4 0.00 0.01 0.00 89 1007.7
20260509115003 49 171 4.3 10.4 0.00 0.01 0.00 90 1007.7
20260509114505 49 164 4.3 10.4 0.00 0.01 0.00 90 1007.8
20260509114003 49 162 4.3 10.4 0.00 0.02 0.00 90 1007.7
20260509113503 48 156 4.3 10.4 0.00 0.02 0.00 90 1007.7
20260509113003 48 149 4.3 8.7 0.00 0.03 0.00 90 1007.7
20260509112503 48 152 3.5 7.8 0.00 0.03 0.00 90 1007.6
20260509112214 47 153 3.5 8.7 0.00 0.05 0.00 90 1007.6
20260509111505 47 150 4.3 8.7 0.00 0.06 0.00 89 1007.8
20260509111003 47 154 4.3 8.7 0.00 0.07 0.00 89 1007.8
20260509110503 46 157 4.3 8.7 0.00 0.08 0.00 89 1007.8
20260509110003 46 157 3.5 8.7 0.00 0.09 0.00 89 1008.0
20260509105503 46 159 3.5 7.8 0.00 0.09 0.00 89 1008.0
20260509105003 46 160 3.5 7.8 0.00 0.09 0.00 89 1007.9
20260509104503 46 161 3.5 8.7 0.00 0.09 0.00 89 1007.9
20260509104003 46 160 4.3 8.7 0.00 0.09 0.00 89 1007.9
20260509103504 46 160 4.3 7.8 0.00 0.09 0.00 89 1007.9
20260509103003 46 162 4.3 7.8 0.00 0.09 0.00 89 1007.8
20260509102503 46 157 3.5 7.8 0.00 0.09 0.00 89 1007.6
20260509102003 45 145 2.6 7.8 0.00 0.09 0.00 89 1007.8
20260509101503 45 137 2.6 5.2 0.00 0.09 0.00 88 1007.9
20260509101214 45 136 2.6 4.3 0.00 0.09 0.00 88 1007.8
20260509100503 45 135 2.6 5.2 0.00 0.10 0.00 88 1007.9
20260509100004 45 133 3.5 7.8 0.00 0.10 0.00 88 1007.7
20260509095503 45 131 3.5 7.8 0.00 0.12 0.00 88 1007.7
20260509095214 45 129 3.5 7.8 0.00 0.12 0.00 87 1007.7
20260509094503 45 145 3.5 7.8 0.00 0.12 0.00 87 1007.8
20260509094004 45 156 2.6 5.2 0.00 0.12 0.00 87 1007.9
20260509093714 45 156 3.5 7.0 0.00 0.12 0.00 87 1007.8
20260509093003 45 157 3.5 7.0 0.00 0.12 0.00 86 1007.8
20260509092505 45 158 3.5 7.0 0.00 0.12 0.00 86 1007.8
20260509092003 45 160 3.5 7.0 0.00 0.12 0.00 84 1007.9
20260509091505 45 161 2.6 7.0 0.00 0.12 0.00 84 1007.8
20260509091003 45 161 3.5 7.0 0.00 0.12 0.00 84 1007.7
20260509090503 45 162 3.5 7.0 0.00 0.12 0.00 83 1007.8
20260509090003 45 163 3.5 7.0 0.00 0.12 0.00 83 1007.8
20260509085503 45 164 3.5 7.0 0.00 0.12 0.00 83 1007.8
20260509085215 45 163 3.5 7.0 0.00 0.12 0.00 82 1007.9
20260509084503 45 159 3.5 7.8 0.00 0.12 0.00 82 1008.0
20260509084003 45 156 3.5 7.8 0.00 0.12 0.00 81 1007.9
20260509083506 45 153 3.5 8.7 0.00 0.12 0.00 80 1007.9
20260509083003 45 152 2.6 8.7 0.00 0.12 0.00 80 1007.9
20260509082503 45 151 2.6 10.4 0.00 0.12 0.00 79 1008.0
20260509082003 45 151 2.6 10.4 0.00 0.12 0.00 78 1008.0
20260509081504 44 152 3.5 7.8 0.00 0.12 0.00 78 1008.0
20260509081213 44 152 3.5 7.8 0.00 0.12 0.00 78 1007.9
20260509080503 44 157 4.3 10.4 0.00 0.12 0.00 77 1008.1
20260509080003 44 157 4.3 10.4 0.00 0.12 0.00 77 1008.1
20260509075503 44 153 4.3 8.7 0.00 0.12 0.00 76 1008.1
20260509075213 44 152 4.3 8.7 0.00 0.12 0.00 76 1008.2
20260509074714 44 155 4.3 8.7 0.00 0.12 0.00 76 1008.2
20260509074003 44 154 3.5 7.8 0.00 0.12 0.00 76 1008.3
20260509073503 44 151 3.5 7.0 0.00 0.12 0.00 75 1008.3
20260509073213 44 151 3.5 7.0 0.00 0.12 0.00 75 1008.3
20260509072714 44 150 3.5 7.8 0.00 0.12 0.00 75 1008.3
20260509072003 44 150 4.3 8.7 0.00 0.12 0.00 75 1008.3
20260509071505 44 152 4.3 8.7 0.00 0.12 0.00 75 1008.5
20260509071213 44 152 4.3 8.7 0.00 0.12 0.00 75 1008.5
20260509070503 44 151 3.5 7.8 0.00 0.12 0.00 74 1008.5
20260509070003 44 155 3.5 8.7 0.00 0.12 0.00 74 1008.5
20260509065503 44 158 3.5 8.7 0.00 0.12 0.00 74 1008.6
20260509065003 44 158 3.5 7.8 0.00 0.12 0.00 74 1008.6
20260509064505 44 159 3.5 7.8 0.00 0.12 0.00 72 1008.7
20260509064003 44 160 4.3 7.8 0.00 0.12 0.00 72 1008.8
20260509063504 44 159 4.3 7.8 0.00 0.12 0.00 72 1008.8
20260509063003 44 152 3.5 7.8 0.00 0.12 0.00 72 1008.9
20260509062505 44 154 3.5 7.0 0.00 0.12 0.00 72 1008.9
20260509062003 44 162 4.3 7.8 0.00 0.12 0.00 71 1009.0
20260509061504 44 163 3.5 7.8 0.00 0.12 0.00 71 1009.0
20260509061003 44 160 3.5 7.8 0.00 0.12 0.00 71 1009.1
20260509060503 44 154 3.5 7.8 0.00 0.12 0.00 71 1009.2
20260509060004 44 155 4.3 7.8 0.00 0.12 0.00 70 1009.3
20260509055503 44 163 5.2 11.3 0.00 0.12 0.00 70 1009.4
20260509055214 44 164 5.2 12.2 0.00 0.12 0.00 70 1009.4
20260509054504 44 162 5.2 12.2 0.00 0.12 0.00 70 1009.5
20260509054003 44 158 4.3 10.4 0.00 0.12 0.00 69 1009.6
20260509053505 44 157 4.3 7.8 0.00 0.12 0.00 69 1009.6
20260509053003 44 157 4.3 7.8 0.00 0.12 0.00 69 1009.6
20260509052505 44 159 4.3 7.8 0.00 0.12 0.00 69 1009.6
20260509052003 44 161 4.3 7.8 0.00 0.12 0.00 68 1009.7
20260509051503 44 164 4.3 7.8 0.00 0.13 0.00 68 1009.7
20260509051003 44 162 5.2 8.7 0.00 0.13 0.00 68 1009.8
20260509050506 44 161 5.2 8.7 0.00 0.13 0.00 68 1009.9
20260509050003 44 162 4.3 8.7 0.00 0.13 0.00 67 1009.9
20260509045713 44 161 4.3 7.8 0.00 0.13 0.00 67 1009.9
20260509045003 45 163 4.3 7.8 0.00 0.13 0.00 67 1010.0
20260509044713 45 163 4.3 7.8 0.00 0.13 0.00 67 1009.9
20260509044005 45 164 4.3 8.7 0.00 0.13 0.00 67 1010.0
20260509043503 45 164 4.3 10.4 0.00 0.13 0.00 66 1010.0
20260509043005 45 159 4.3 8.7 0.00 0.13 0.00 66 1010.1
20260509042504 45 148 4.3 8.7 0.00 0.13 0.00 66 1010.3
20260509042004 45 151 4.3 8.7 0.00 0.13 0.00 65 1010.3
20260509041503 45 159 4.3 8.7 0.00 0.13 0.00 65 1010.3
20260509041003 45 158 4.3 8.7 0.00 0.13 0.00 66 1010.2
20260509040506 45 158 4.3 7.8 0.00 0.13 0.00 66 1010.2
20260509040005 45 161 5.2 8.7 0.00 0.13 0.00 66 1010.2
20260509035503 44 162 4.3 8.7 0.00 0.13 0.13 66 1010.4
20260509035003 44 163 4.3 8.7 0.00 0.13 0.13 67 1010.4
20260509034714 44 162 4.3 7.8 0.00 0.13 0.13 67 1010.5
20260509034005 43 169 3.5 7.8 0.00 0.13 0.13 68 1010.5
20260509033503 43 188 2.6 7.8 0.00 0.13 0.13 68 1010.6
20260509033004 43 218 2.6 5.2 0.00 0.13 0.13 70 1010.6
20260509032504 43 229 2.6 5.2 0.00 0.13 0.13 71 1010.6
20260509032215 43 230 2.6 4.3 0.00 0.13 0.13 71 1010.7
20260509031503 43 232 1.7 4.3 0.00 0.13 0.13 69 1010.8
20260509031005 43 232 0.9 3.5 0.00 0.13 0.13 69 1010.8
20260509030503 43 232 0.0 3.5 0.00 0.13 0.13 70 1010.8
20260509030003 43 0 0.0 0.0 0.00 0.13 0.13 69 1010.9
20260509025505 43 0 0.0 0.0 0.00 0.13 0.13 69 1010.8
20260509025003 43 233 0.0 2.6 0.00 0.13 0.13 68 1010.9
20260509024503 44 233 0.9 2.6 0.00 0.13 0.13 68 1010.8
20260509024213 44 233 0.9 3.5 0.00 0.13 0.13 68 1010.8
20260509023503 44 233 0.9 3.5 0.00 0.13 0.13 66 1010.9
20260509023003 44 233 0.0 2.6 0.00 0.13 0.13 65 1010.9
20260509022505 44 233 0.0 2.6 0.00 0.13 0.13 65 1010.9
20260509022006 44 0 0.0 0.0 0.00 0.13 0.13 66 1010.8
20260509021503 44 233 0.9 3.5 0.00 0.13 0.13 66 1010.8
20260509021003 45 234 0.9 3.5 0.00 0.13 0.13 65 1010.8
20260509020505 45 234 0.9 3.5 0.00 0.13 0.13 65 1010.8
20260509020003 45 234 0.0 2.6 0.00 0.13 0.13 66 1010.8
20260509015714 45 234 0.0 2.6 0.00 0.13 0.13 66 1010.7
20260509015003 46 0 0.0 0.0 0.00 0.14 0.13 65 1010.6
20260509014505 46 234 0.0 0.9 0.00 0.15 0.13 63 1010.6
20260509014214 46 234 0.0 0.9 0.00 0.15 0.13 63 1010.6
20260509013503 47 234 0.9 2.6 0.00 0.15 0.13 63 1010.6
20260509013212 47 234 0.9 2.6 0.00 0.15 0.13 62 1010.5
20260509012504 48 234 0.9 2.6 0.00 0.15 0.13 59 1010.4
20260509012212 48 234 0.0 2.6 0.00 0.16 0.13 58 1010.4
20260509011503 48 0 0.0 0.0 0.00 0.17 0.13 56 1010.5
20260509011003 49 234 0.9 2.6 0.00 0.17 0.13 57 1010.5
20260509010503 49 234 0.9 2.6 0.00 0.18 0.13 54 1010.5
20260509010003 50 234 0.0 2.6 0.00 0.18 0.13 51 1010.4
20260509005503 50 234 0.0 0.9 0.00 0.18 0.13 51 1010.5
20260509005214 50 0 0.0 0.0 0.00 0.18 0.13 52 1010.4
20260509004503 51 234 0.0 2.6 0.00 0.18 0.13 50 1010.4
20260509004003 51 234 0.0 2.6 0.00 0.18 0.13 47 1010.4
20260509003503 52 234 0.9 3.5 0.00 0.18 0.13 45 1010.3
20260509003003 52 234 1.7 3.5 0.00 0.18 0.13 42 1010.4
20260509002503 52 234 1.7 3.5 0.00 0.18 0.13 41 1010.3
20260509002004 52 234 1.7 4.3 0.00 0.18 0.13 41 1010.3
20260509001503 53 234 1.7 4.3 0.00 0.18 0.13 40 1010.3
20260509001214 53 234 1.7 4.3 0.00 0.18 0.13 39 1010.2
20260509000503 53 235 1.7 5.2 0.00 0.18 0.13 36 1010.1
20260509000004 53 236 1.7 5.2 0.00 0.18 0.13 36 1010.1
20260508235503 54 236 1.7 4.3 0.00 0.18 0.13 38 1010.0
20260508235004 54 238 1.7 4.3 0.00 0.18 0.13 35 1010.0
20260508234503 54 240 2.6 7.8 0.00 0.18 0.13 34 1010.0
20260508234004 54 238 3.5 10.4 0.00 0.18 0.13 33 1010.1
20260508233715 54 236 4.3 10.4 0.00 0.18 0.13 32 1010.0
20260508233216 54 241 5.2 10.4 0.00 0.18 0.13 32 1010.0
20260508232503 54 238 4.3 11.3 0.00 0.18 0.13 33 1010.0
20260508232216 55 230 5.2 12.2 0.00 0.18 0.13 32 1010.0
20260508231503 55 228 5.2 12.2 0.00 0.18 0.13 32 1010.0
20260508231213 55 229 5.2 11.3 0.00 0.18 0.13 32 1010.0
20260508230505 55 217 5.2 10.4 0.00 0.18 0.13 34 1010.0
20260508230005 55 206 4.3 10.4 0.00 0.18 0.13 35 1010.0
20260508225503 56 221 5.2 12.2 0.00 0.18 0.13 36 1010.0
20260508225003 56 244 6.1 12.2 0.00 0.18 0.13 36 1010.0
20260508224503 56 252 6.1 12.2 0.00 0.18 0.13 38 1010.1
20260508224213 56 241 6.1 12.2 0.00 0.18 0.13 39 1010.1
20260508223503 56 236 4.3 12.2 0.00 0.18 0.13 38 1010.1
20260508223003 56 234 4.3 11.3 0.00 0.18 0.13 38 1010.2
20260508222505 56 235 3.5 11.3 0.00 0.18 0.13 36 1010.2
20260508222003 56 260 4.3 11.3 0.00 0.18 0.13 36 1010.1
20260508221714 56 266 4.3 11.3 0.00 0.18 0.13 39 1010.1
20260508221213 56 244 5.2 11.3 0.00 0.18 0.13 38 1010.1
20260508220503 56 223 4.3 12.2 0.00 0.18 0.13 39 1010.2
20260508220003 56 232 4.3 12.2 0.00 0.18 0.13 39 1010.2
20260508215503 56 229 4.3 12.2 0.00 0.18 0.13 40 1010.2
20260508215003 56 231 5.2 12.2 0.00 0.18 0.13 38 1010.2
20260508214503 56 225 5.2 12.2 0.00 0.18 0.13 36 1010.2
20260508214003 56 224 4.3 8.7 0.00 0.18 0.13 36 1010.2
20260508213504 56 231 5.2 12.2 0.00 0.18 0.13 39 1010.2
20260508213215 56 232 4.3 12.2 0.00 0.18 0.13 39 1010.2
20260508212714 56 244 6.1 12.2 0.00 0.18 0.13 36 1010.2
20260508212003 57 259 7.0 13.0 0.00 0.18 0.13 38 1010.3
20260508211503 57 273 5.2 13.0 0.00 0.18 0.13 38 1010.2
20260508211003 57 258 5.2 14.8 0.00 0.18 0.13 38 1010.2
20260508210504 57 251 4.3 14.8 0.00 0.18 0.13 42 1010.1
20260508210003 56 231 3.5 14.8 0.00 0.18 0.13 41 1010.2
20260508205503 56 196 3.5 7.8 0.00 0.18 0.13 40 1010.2
20260508205213 56 200 3.5 10.4 0.00 0.18 0.13 41 1010.2
20260508204503 56 221 4.3 11.3 0.00 0.18 0.13 39 1010.2
20260508204003 56 212 5.2 11.3 0.00 0.18 0.13 39 1010.3
20260508203503 56 211 5.2 12.2 0.00 0.18 0.13 41 1010.3
20260508203005 56 208 5.2 12.2 0.00 0.18 0.13 42 1010.4
20260508202503 56 195 6.1 17.4 0.00 0.18 0.13 41 1010.4
20260508202003 56 190 5.2 17.4 0.00 0.18 0.13 43 1010.5